[[[{"header":{"parameterUnit":"kt","parameterCategory":2,"dx":1,"dy":1,"la1":30.253999710083008,"la2":30.299108505249023,"lo1":-89.0895004272461,"lo2":-89.04439544677734,"nx":28,"ny":28,"refTime":"2022-09-23T21:00:00:Z","depth":"0","parameterNumber":2,"parameterNumberName":"U-component_of_CURRENTS"},"data":[0.6515,0.64,0.6357,0.6037,0.5913,0.5644,0.5543,0.5429,0.5475,0.539,0.5425,0.5553,0.5516,0.5261,0.5054,0.5089,0.4757,0.4467,0.4624,0.534,0.5444,0.5543,0.5311,0.4542,0.454,0.3308,0.3297,0.3288,0.6601,0.6571,0.6489,0.6327,0.6147,0.6163,0.6032,0.5897,0.5808,0.5942,0.5996,0.6123,0.6233,0.6476,0.6543,0.6365,0.63,0.6163,0.5599,0.5644,0.6785,0.6583,0.6072,0.6072,0.6072,0.6073,0.6073,0.6073,0.6772,0.6718,0.6677,0.6561,0.6471,0.6334,0.6203,0.6192,0.6154,0.615,0.6372,0.6479,0.6707,0.7375,0.7595,0.7548,0.7647,0.7398,0.7278,0.7016,0.6748,0.7889,0.7841,0.7846,0.785,0.7854,0.7857,0,0.688,0.6884,0.683,0.6739,0.6656,0.6553,0.6494,0.6455,0.6515,0.6549,0.6621,0.6736,0.7191,0.7426,0.7941,0.8232,0.8009,0.844,0.8134,0.738,0.6857,0.684,0.8198,0.8131,0.8138,0.8143,0.8147,0.8149,0.7042,0.6991,0.6943,0.6889,0.6862,0.6772,0.6721,0.676,0.674,0.6852,0.6857,0.7102,0.7259,0.7822,0.8245,0.8698,0.8486,0.858,0.8574,0.8134,0.8038,0.7717,0.7643,0.8221,0.8212,0.8204,0.8198,0,0.712,0.7148,0.7058,0.7024,0.7002,0.6925,0.6896,0.6854,0.6933,0.6949,0.6979,0.7213,0.7519,0.7893,0.8381,0.8595,0.8644,0.903,0.8553,0.858,0.8281,0.8129,0.7639,0.7531,0.9104,0.9101,0.9099,0,0.728,0.7199,0.7226,0.7178,0.7064,0.7115,0.7023,0.707,0.713,0.713,0.7324,0.7382,0.7798,0.8049,0.8381,0.87,0.8803,0.8944,0.9033,0.8708,0.8668,0.8466,0.8311,0.9187,0.9185,0.9184,0.9183,0,0.7413,0.7388,0.7311,0.7308,0.7317,0.7264,0.7264,0.732,0.7324,0.7415,0.7437,0.7651,0.7782,0.809,0.8447,0.8476,0.8822,0.8944,0.901,0.9002,0.881,0.8779,0.8373,0.9182,0.9181,0.9181,0.918,0,0.7577,0.7568,0.7492,0.7472,0.7467,0.7427,0.7402,0.741,0.7502,0.7548,0.765,0.7797,0.7956,0.8094,0.8452,0.8386,0.8613,0.8787,0.8802,0.8766,0.8883,0.8637,0.853,0.8184,0.8979,0.8977,0.8975,0,0.7677,0.7652,0.7728,0.7642,0.7628,0.7717,0.769,0.7726,0.778,0.7799,0.7957,0.8018,0.8153,0.8209,0.8335,0.8584,0.8673,0.8576,0.8983,0.8993,0.8836,0.879,0.8419,0.8517,0.895,0.8952,0.8954,0,0.779,0.7895,0.7883,0.788,0.7959,0.7941,0.7929,0.7951,0.7942,0.8016,0.8004,0.8138,0.8241,0.8319,0.8454,0.8557,0.8635,0.8686,0.87,0.8702,0.8911,0.8773,0.8777,0.8769,0.8772,0.8774,0.8934,0,0.8001,0.8,0.7978,0.8047,0.8052,0.8037,0.8128,0.8129,0.8175,0.8232,0.8274,0.8417,0.8517,0.8553,0.8639,0.8699,0.8747,0.8861,0.8914,0.8884,0.896,0.8974,0.8862,0.8866,0.887,0.8873,0,0,0.8095,0.8116,0.822,0.8228,0.8232,0.8362,0.8329,0.8371,0.8442,0.8447,0.8492,0.8633,0.8726,0.8781,0.8775,0.8838,0.8922,0.8796,0.89,0.8902,0.8904,0.8973,0.8983,0.8879,0.888,0.8881,0.8882,0,0.8203,0.825,0.8237,0.8281,0.8362,0.8418,0.8414,0.8495,0.8519,0.853,0.8651,0.8715,0.8776,0.8862,0.8919,0.888,0.898,0.8905,0.8769,0.8924,0.8921,0.892,0.8985,0.8992,0.8891,0.889,0.889,0,0.8337,0.8404,0.8401,0.8468,0.8517,0.8524,0.8627,0.8637,0.8632,0.8773,0.875,0.8841,0.8965,0.8977,0.899,0.9022,0.9049,0.9018,0.9005,0.8983,0.9148,0.9144,0.9141,0.918,0.918,0.918,0,0,0.8418,0.8427,0.8532,0.8498,0.8526,0.8618,0.8632,0.8687,0.8749,0.8769,0.8818,0.8901,0.8969,0.8986,0.905,0.9046,0.9143,0.904,0.9027,0.9014,0.8986,0.9146,0.9143,0.9179,0.9178,0.9178,0,0,0.8449,0.8564,0.8619,0.8591,0.8642,0.8731,0.8708,0.8767,0.881,0.8824,0.8917,0.8935,0.895,0.9022,0.8999,0.9046,0.9122,0.9127,0.8942,0.8927,0.8914,0.8858,0.9067,0,0,0,0,0,0.861,0.8555,0.8605,0.8615,0.8688,0.8714,0.8724,0.8791,0.8833,0.8809,0.8889,0.8928,0.905,0.9031,0.9041,0.899,0.9164,0.9167,0.9169,0.8935,0.8919,0.8904,0,0,0,0,0,0,0.8615,0.8626,0.8606,0.8693,0.8711,0.8717,0.8804,0.8821,0.8836,0.8845,0.8916,0.8931,0.8994,0.9029,0.9037,0.8987,0.9064,0.9165,0.9167,0.9169,0.893,0.8916,0.8904,0,0,0,0,0,0.8619,0.8628,0.8725,0.8694,0.871,0.8793,0.8805,0.8819,0.8827,0.8919,0.8934,0.8874,0.8992,0.9003,0.9034,0.8982,0.9059,0.9062,0.9167,0.9168,0.917,0.8923,0,0,0,0,0,0,0.8622,0.8642,0.873,0.8738,0.8706,0.8793,0.8807,0.8818,0.8902,0.8917,0.8882,0.8888,0.899,0.8999,0.9008,0.8975,0.9055,0.9058,0.9059,0.9168,0.9169,0.917,0,0,0,0,0,0,0.8638,0.8647,0.8734,0.8745,0.8754,0.8793,0.8805,0.8829,0.8901,0.886,0.8868,0.8884,0.8978,0.8996,0.9003,0.9039,0.9051,0.9054,0.9056,0.9057,0.9169,0.917,0,0,0,0,0,0,0.8643,0.8652,0.8743,0.875,0.8759,0.885,0.8816,0.8886,0.8913,0.8855,0.8918,0.892,0.8974,0.8982,0.8999,0.9032,0.9037,0.9051,0.9053,0.9055,0.9055,0,0,0,0,0,0,0,0.8648,0.8571,0.8686,0.8755,0.8763,0.8811,0.8813,0.8815,0.8914,0.8915,0.8917,0.8919,0.9035,0.9038,0.9041,0.9026,0,0,0.9051,0.9052,0,0,0,0,0,0,0,0,0.8569,0.857,0.8686,0.8688,0.8689,0.8811,0.8813,0.8814,0.8914,0.8915,0.8917,0.8918,0.9036,0.9039,0.9041,0,0,0,0,0,0,0,0,0,0,0,0,0,0,0,0.8686,0.8687,0,0.8811,0.8813,0.8814,0.8914,0.8915,0.8917,0.8918,0.9037,0.9039,0.9041,0,0,0,0,0,0,0,0,0,0,0,0,0,0,0,0,0,0,0,0,0,0,0,0,0,0,0,0,0,0,0,0,0,0,0,0,0,0,0,0,0,0,0,0,0,0,0,0,0,0,0,0,0,0,0,0,0,0,0,0,0,0,0,0,0,0,0,0,0]}],[{"header":{"parameterUnit":"kt","parameterCategory":2,"dx":1,"dy":1,"la1":30.253999710083008,"la2":30.299108505249023,"lo1":-89.0895004272461,"lo2":-89.04439544677734,"nx":28,"ny":28,"refTime":"2022-09-23T21:00:00:Z","depth":"0","parameterNumber":3,"parameterNumberName":"V-component_of_CURRENTS"},"data":[0.1633,0.1664,0.1742,0.1913,0.2031,0.2199,0.2331,0.2543,0.2821,0.3202,0.3493,0.3765,0.3549,0.2403,0.1624,0.1492,0.1266,0.1208,0.1052,0.1332,0.1373,0.1413,0.1386,0.101,0.1009,0.0795,0.0791,0.0789,0.1702,0.176,0.1833,0.197,0.2103,0.2215,0.245,0.258,0.2807,0.3151,0.3374,0.3582,0.3342,0.3038,0.2437,0.199,0.1955,0.1737,0.1758,0.1771,0.2196,0.2198,0.1989,0.1989,0.1989,0.1989,0.199,0.199,0.1837,0.1845,0.1928,0.2024,0.2148,0.2328,0.2425,0.2639,0.2845,0.3129,0.3258,0.3509,0.3426,0.3173,0.2893,0.2403,0.2457,0.2248,0.2136,0.2137,0.2101,0.2567,0.2427,0.2426,0.2425,0.2425,0.2424,0,0.1959,0.2006,0.2046,0.214,0.223,0.2372,0.2537,0.2628,0.2899,0.3043,0.3245,0.3364,0.3323,0.3264,0.3009,0.2858,0.2589,0.2664,0.2415,0.2382,0.2342,0.2294,0.2827,0.275,0.2751,0.2752,0.2752,0.2752,0.2116,0.2113,0.2237,0.2277,0.233,0.2438,0.2545,0.2757,0.288,0.3135,0.3202,0.3283,0.3397,0.324,0.3076,0.289,0.2735,0.2704,0.2708,0.2456,0.2307,0.2289,0.2275,0.2763,0.2762,0.2761,0.276,0,0.2204,0.2277,0.2307,0.2442,0.2491,0.2533,0.2739,0.2835,0.2993,0.3135,0.318,0.3354,0.336,0.3316,0.3222,0.3085,0.2851,0.2866,0.2946,0.2913,0.2494,0.2386,0.2167,0.213,0.2631,0.2628,0.2625,0,0.236,0.2369,0.249,0.249,0.2558,0.2687,0.2786,0.2899,0.3063,0.3175,0.3281,0.3362,0.3363,0.3339,0.3252,0.3098,0.3154,0.2951,0.291,0.2988,0.2984,0.2741,0.2629,0.305,0.3051,0.3052,0.3053,0,0.2445,0.2525,0.2543,0.2574,0.2711,0.276,0.285,0.3,0.3088,0.3221,0.3286,0.3345,0.3371,0.3305,0.3249,0.325,0.3162,0.3148,0.2956,0.2947,0.2961,0.2953,0.2722,0.3054,0.3054,0.3055,0.3055,0,0.2561,0.2592,0.2611,0.2734,0.2757,0.2796,0.2935,0.3006,0.3144,0.3206,0.3278,0.3318,0.3359,0.3319,0.3276,0.3299,0.3209,0.3166,0.316,0.303,0.2983,0.2956,0.2951,0.2716,0.3063,0.3064,0.3064,0,0.2628,0.2645,0.2713,0.2748,0.277,0.2872,0.2942,0.3025,0.3096,0.3172,0.322,0.3272,0.3264,0.3284,0.3274,0.3256,0.3208,0.325,0.3101,0.3096,0.3009,0.3003,0.3074,0.2966,0.3073,0.3072,0.3072,0,0.2673,0.2759,0.2754,0.2785,0.2861,0.2885,0.2951,0.3029,0.3085,0.3119,0.3184,0.3219,0.3241,0.3245,0.3252,0.3235,0.3217,0.319,0.3186,0.3146,0.313,0.3027,0.301,0.3201,0.3201,0.3201,0.3079,0,0.2758,0.279,0.2793,0.2841,0.2875,0.2889,0.2956,0.2994,0.303,0.3072,0.3126,0.3138,0.3166,0.317,0.317,0.3192,0.3149,0.3137,0.3102,0.3129,0.3069,0.3063,0.3103,0.3102,0.31,0.3099,0,0,0.2784,0.2819,0.2867,0.2878,0.2904,0.295,0.2962,0.2997,0.3028,0.3062,0.3051,0.3095,0.3087,0.3132,0.3153,0.3133,0.3091,0.3111,0.3115,0.3117,0.3119,0.3064,0.306,0.3097,0.3097,0.3096,0.3096,0,0.281,0.2868,0.2869,0.2897,0.2928,0.296,0.2963,0.3001,0.3026,0.3043,0.3062,0.3083,0.3064,0.3089,0.3092,0.3116,0.3057,0.3099,0.3131,0.3105,0.3109,0.3112,0.3059,0.3057,0.3093,0.3093,0.3093,0,0.284,0.2876,0.289,0.2944,0.2965,0.2986,0.3004,0.3015,0.3038,0.303,0.3051,0.3057,0.3047,0.3059,0.3054,0.3032,0.3015,0.3026,0.3031,0.3031,0.3002,0.3006,0.301,0.2958,0.2958,0.2958,0,0,0.2851,0.2877,0.2929,0.2953,0.2967,0.2998,0.3005,0.3022,0.3038,0.3043,0.3043,0.3037,0.3044,0.3032,0.3027,0.3013,0.2976,0.3013,0.302,0.3025,0.3028,0.3,0.3005,0.2958,0.2958,0.2957,0,0,0.2852,0.2913,0.2937,0.2974,0.2998,0.3032,0.303,0.3046,0.3055,0.3053,0.3049,0.3045,0.3049,0.3017,0.3017,0.3016,0.2985,0.2984,0.3048,0.3056,0.3062,0.3073,0.2997,0,0,0,0,0,0.2891,0.2907,0.2929,0.294,0.3004,0.3026,0.303,0.3052,0.3058,0.306,0.3068,0.3045,0.3027,0.3027,0.3018,0.3031,0.2953,0.2954,0.2955,0.3035,0.3043,0.305,0,0,0,0,0,0,0.2896,0.2913,0.2927,0.2967,0.298,0.3027,0.3045,0.3051,0.3059,0.3062,0.3048,0.3044,0.304,0.3028,0.3021,0.3034,0.3,0.2954,0.2954,0.2955,0.3038,0.3044,0.305,0,0,0,0,0,0.29,0.2913,0.3019,0.2965,0.2977,0.3007,0.3045,0.3051,0.3058,0.3048,0.3046,0.3073,0.304,0.3033,0.3024,0.3039,0.3004,0.3002,0.2954,0.2955,0.2955,0.3041,0,0,0,0,0,0,0.2903,0.2912,0.3021,0.3024,0.2967,0.3004,0.3015,0.305,0.3043,0.3043,0.3071,0.3073,0.304,0.3034,0.3029,0.3043,0.3008,0.3006,0.3004,0.2954,0.2955,0.2955,0,0,0,0,0,0,0.2904,0.2915,0.3022,0.3024,0.3027,0.3001,0.3011,0.2983,0.3041,0.3066,0.3068,0.3071,0.3026,0.3035,0.3031,0.2988,0.3011,0.3009,0.3007,0.3006,0.2955,0.2955,0,0,0,0,0,0,0.2908,0.2917,0.3023,0.3026,0.3028,0.306,0.2973,0.3025,0.3083,0.3064,0.3084,0.3085,0.3025,0.3023,0.3033,0.2992,0.2989,0.3011,0.301,0.3008,0.3008,0,0,0,0,0,0,0,0.2912,0.2858,0.3004,0.3027,0.303,0.3047,0.3048,0.3049,0.3083,0.3084,0.3084,0.3085,0.3025,0.3023,0.302,0.2994,0,0,0.3011,0.301,0,0,0,0,0,0,0,0,0.2854,0.2857,0.3005,0.3005,0.3005,0.3047,0.3048,0.3049,0.3083,0.3084,0.3084,0.3084,0.3025,0.3023,0.302,0,0,0,0,0,0,0,0,0,0,0,0,0,0,0,0.3005,0.3005,0,0.3047,0.3048,0.3048,0.3083,0.3084,0.3084,0.3084,0.3024,0.3022,0.302,0,0,0,0,0,0,0,0,0,0,0,0,0,0,0,0,0,0,0,0,0,0,0,0,0,0,0,0,0,0,0,0,0,0,0,0,0,0,0,0,0,0,0,0,0,0,0,0,0,0,0,0,0,0,0,0,0,0,0,0,0,0,0,0,0,0,0,0,0]}]],[[{"header":{"parameterUnit":"kt","parameterCategory":2,"dx":1,"dy":1,"la1":30.253999710083008,"la2":30.299108505249023,"lo1":-89.0895004272461,"lo2":-89.04439544677734,"nx":28,"ny":28,"refTime":"2022-09-23T21:00:00:Z","depth":"2","parameterNumber":2,"parameterNumberName":"U-component_of_CURRENTS"},"data":[0.3337,0.3279,0.3275,0.3165,0.3165,0.31,0.3101,0.2984,0.2871,0.2537,0.2339,0.2274,0.2393,0.1846,0.1752,0.1614,0.2072,0.1537,0.2727,0.2766,0.2869,0.3142,0.2769,0,0,0,0,0,0.3397,0.3393,0.3369,0.334,0.3281,0.3369,0.338,0.332,0.3352,0.3278,0.3304,0.2815,0.261,0.277,0.2343,0.2277,0.2253,0.2409,0.2366,0.2475,0.2576,0.2269,0.1482,0.1481,0.148,0.1479,0,0,0.3502,0.3471,0.3477,0.3484,0.3484,0.3472,0.3468,0.3551,0.3634,0.3693,0.391,0.3855,0.3782,0.3479,0.3485,0.3457,0.3717,0.3645,0.3688,0.3745,0.349,0.3305,0.3028,0.3036,0.3043,0.3049,0.3055,0,0.3562,0.3597,0.3591,0.3589,0.3619,0.3632,0.3727,0.3751,0.3968,0.4093,0.4275,0.4384,0.4474,0.4263,0.4352,0.434,0.4622,0.4428,0.5477,0.4025,0.3849,0.3863,0.3903,0.3719,0.3732,0.3741,0.3747,0.3752,0.3678,0.3654,0.37,0.3697,0.3732,0.3803,0.3846,0.4017,0.4082,0.4356,0.4403,0.4707,0.4835,0.5123,0.5022,0.513,0.5541,0.4718,0.447,0.5248,0.5265,0.5257,0.5248,0.3884,0.3867,0.3853,0.3842,0,0.3746,0.3765,0.3747,0.3815,0.3844,0.3881,0.4004,0.406,0.425,0.4377,0.4459,0.4742,0.5008,0.5255,0.5547,0.5485,0.5605,0.5591,0.4936,0.4868,0.5303,0.5284,0.5373,0.5364,0.5356,0.535,0.5345,0,0.384,0.3833,0.3878,0.3864,0.3891,0.3971,0.4049,0.415,0.431,0.4408,0.4625,0.4741,0.5036,0.5239,0.5377,0.5462,0.5667,0.5383,0.5406,0.4883,0.4813,0.5549,0.5525,0.5735,0.5733,0.5731,0.573,0,0.3947,0.3923,0.3898,0.3903,0.3948,0.3995,0.4056,0.4202,0.4268,0.4488,0.4583,0.4822,0.4965,0.5143,0.5331,0.5302,0.5589,0.5566,0.5397,0.5379,0.4857,0.4783,0.5728,0.5728,0.5727,0.5727,0.5726,0,0.4025,0.4008,0.3949,0.4009,0.4014,0.4014,0.4139,0.4168,0.434,0.4445,0.4621,0.4737,0.4909,0.4923,0.5189,0.514,0.525,0.5315,0.5327,0.4999,0.4987,0.4616,0.458,0.5448,0.5446,0.5443,0.544,0,0.4165,0.408,0.4096,0.406,0.4038,0.4126,0.4151,0.4225,0.4327,0.4436,0.4574,0.4681,0.473,0.4826,0.493,0.5036,0.5141,0.5021,0.5242,0.5246,0.499,0.5069,0.446,0.4571,0.5405,0.5409,0.5412,0,0.4261,0.4237,0.4241,0.4255,0.4267,0.4231,0.4259,0.4298,0.4377,0.4451,0.4554,0.4617,0.4738,0.4748,0.4813,0.4897,0.5081,0.4937,0.494,0.5038,0.5356,0.5059,0.5055,0.5163,0.5166,0.5169,0.5384,0,0.4397,0.4376,0.4338,0.4316,0.43,0.4266,0.4294,0.4329,0.4421,0.4464,0.4578,0.4603,0.4677,0.4709,0.4701,0.483,0.4855,0.4856,0.4837,0.4916,0.4996,0.5018,0.4719,0.4716,0.4714,0.4713,0,0,0.4554,0.4471,0.4477,0.4428,0.4426,0.4474,0.4427,0.4428,0.4419,0.4475,0.4513,0.4592,0.4593,0.4658,0.4691,0.4674,0.4749,0.4689,0.4856,0.4872,0.4886,0.4968,0.4991,0.4709,0.4709,0.4708,0.4707,0,0.4572,0.458,0.4517,0.4494,0.4482,0.4464,0.4477,0.4448,0.4491,0.4481,0.4543,0.461,0.4581,0.4613,0.4619,0.4647,0.4702,0.4683,0.4721,0.4837,0.4855,0.4872,0.4956,0.4978,0.4703,0.4703,0.4703,0,0.4676,0.4651,0.4619,0.4546,0.4525,0.4472,0.4519,0.4487,0.4482,0.45,0.4525,0.456,0.4546,0.4563,0.4578,0.4562,0.466,0.4589,0.4598,0.4555,0.4669,0.469,0.4708,0.4479,0.4479,0.4479,0,0,0.4711,0.4665,0.4612,0.4545,0.4536,0.4517,0.4494,0.451,0.4492,0.4504,0.4519,0.4541,0.4546,0.4563,0.4534,0.4522,0.454,0.4567,0.4578,0.4587,0.455,0.4665,0.4684,0.4478,0.4478,0.4478,0,0,0.4711,0.4656,0.4689,0.46,0.4559,0.4476,0.4457,0.4485,0.4485,0.4541,0.4542,0.4544,0.4577,0.4541,0.4532,0.4574,0.4524,0.4522,0.4622,0.4634,0.4644,0.4613,0.4541,0,0,0,0,0,0.4727,0.4655,0.4686,0.467,0.4559,0.4456,0.4441,0.4463,0.4546,0.4522,0.456,0.4572,0.455,0.454,0.4525,0.4595,0.4467,0.4469,0.4471,0.4593,0.4607,0.4618,0,0,0,0,0,0,0.472,0.4696,0.4687,0.4601,0.4578,0.4457,0.4527,0.4528,0.455,0.4564,0.4562,0.4567,0.4551,0.4546,0.4533,0.4602,0.4545,0.4468,0.447,0.4471,0.4598,0.4609,0.4618,0,0,0,0,0,0.4714,0.4695,0.4524,0.4602,0.4581,0.4582,0.4533,0.4535,0.4563,0.4529,0.4538,0.4598,0.4546,0.4541,0.4538,0.461,0.4554,0.4549,0.4469,0.447,0.4472,0.4603,0,0,0,0,0,0,0.471,0.4676,0.452,0.4514,0.4668,0.4592,0.4583,0.454,0.453,0.4536,0.4559,0.457,0.454,0.4538,0.4534,0.4617,0.4561,0.4556,0.4553,0.447,0.4471,0.4472,0,0,0,0,0,0,0.4687,0.467,0.4516,0.4598,0.4601,0.46,0.4593,0.4523,0.4532,0.456,0.4568,0.4565,0.4584,0.4535,0.4532,0.4417,0.4566,0.4562,0.4558,0.4556,0.4471,0.4472,0,0,0,0,0,0,0.468,0.4665,0.4599,0.4601,0.4604,0.4529,0.4542,0.4449,0.4544,0.4561,0.4561,0.4569,0.4582,0.4578,0.453,0.4416,0.4417,0.4566,0.4563,0.4561,0.4559,0,0,0,0,0,0,0,0.4674,0.4774,0.4567,0.4604,0.4607,0.4458,0.4455,0.4452,0.4545,0.4552,0.4559,0.4565,0.4592,0.4587,0.4582,0.4414,0,0,0.4567,0.4564,0,0,0,0,0,0,0,0,0.478,0.4775,0.4567,0.4566,0.4565,0.4457,0.4455,0.4453,0.4546,0.4552,0.4557,0.4563,0.4591,0.4587,0.4583,0,0,0,0,0,0,0,0,0,0,0,0,0,0,0,0.4567,0.4566,0,0.4457,0.4455,0.4453,0.4547,0.4552,0.4556,0.4561,0.459,0.4587,0.4583,0,0,0,0,0,0,0,0,0,0,0,0,0,0,0,0,0,0,0,0,0,0,0,0,0,0,0,0,0,0,0,0,0,0,0,0,0,0,0,0,0,0,0,0,0,0,0,0,0,0,0,0,0,0,0,0,0,0,0,0,0,0,0,0,0,0,0,0,0]}],[{"header":{"parameterUnit":"kt","parameterCategory":2,"dx":1,"dy":1,"la1":30.253999710083008,"la2":30.299108505249023,"lo1":-89.0895004272461,"lo2":-89.04439544677734,"nx":28,"ny":28,"refTime":"2022-09-23T21:00:00:Z","depth":"2","parameterNumber":3,"parameterNumberName":"V-component_of_CURRENTS"},"data":[0.0144,0.0386,0.0489,0.0883,0.1054,0.134,0.1527,0.1856,0.1997,0.2169,0.2064,0.1905,0.1288,0.0741,0.0291,0.0013,0.0006,-0.0005,0.0201,0.0102,0.0114,-0.0218,-0.0238,0,0,0,0,0,0.0012,0.0157,0.0386,0.0679,0.0916,0.1005,0.1364,0.1576,0.1951,0.2106,0.2297,0.1749,0.1372,0.0917,0.0266,-0.0058,-0.0133,-0.0108,-0.0235,-0.023,-0.0225,-0.024,-0.0276,-0.0276,-0.0276,-0.0275,0,0,-0.0196,-0.0046,0.0154,0.0408,0.064,0.0921,0.1129,0.1404,0.1735,0.2036,0.2077,0.2113,0.1608,0.0971,0.0643,0.0247,0.0225,-0.003,-0.0034,-0.0035,-0.0036,-0.0007,-0.0021,-0.0019,-0.0018,-0.0017,-0.0016,0,-0.0349,-0.0271,-0.0084,0.0166,0.0393,0.0659,0.0932,0.1097,0.1341,0.156,0.1834,0.1927,0.1661,0.1282,0.0824,0.0566,0.0195,0.0124,0.0268,-0.017,-0.0146,-0.0209,-0.021,-0.0187,-0.0186,-0.0185,-0.0185,-0.0185,-0.0544,-0.0421,-0.0152,-0.0009,0.0119,0.0387,0.0584,0.0778,0.0979,0.1256,0.1383,0.1427,0.1511,0.1236,0.0801,0.0463,0.0388,0.0143,-0.0025,0.0101,0.0039,0.0031,0.0023,-0.0178,-0.0179,-0.0179,-0.018,0,-0.0631,-0.0545,-0.0309,-0.0077,0.0013,0.0209,0.0499,0.0697,0.0834,0.1088,0.1133,0.119,0.1142,0.0908,0.0667,0.0439,0.0247,0.0167,0.0083,0.0022,0.0014,0.0009,0.0094,0.0096,0.0098,0.01,0.0101,0,-0.0734,-0.0576,-0.0411,-0.0297,-0.0039,0.0066,0.0349,0.0473,0.0654,0.0862,0.0829,0.0954,0.0703,0.0643,0.0413,0.0255,0.0248,0.002,-0.0033,-0.0154,-0.016,-0.0168,-0.0179,-0.0076,-0.0077,-0.0077,-0.0077,0,-0.0843,-0.0651,-0.0466,-0.0396,-0.0176,-0.0045,0.0084,0.0275,0.0429,0.0573,0.0669,0.0651,0.0654,0.0483,0.03,0.0226,0.0163,0.0019,-0.006,-0.0058,-0.0195,-0.0206,-0.0077,-0.0077,-0.0077,-0.0077,-0.0077,0,-0.0913,-0.081,-0.0611,-0.0388,-0.0333,-0.0216,0.0041,0.0162,0.0314,0.0369,0.042,0.0394,0.0411,0.0247,0.0151,0.0149,0.0013,-0.009,-0.0094,-0.0068,-0.0186,-0.0268,-0.0211,-0.0185,-0.0185,-0.0186,-0.0187,0,-0.0989,-0.0839,-0.0803,-0.0604,-0.0495,-0.0429,-0.0293,-0.017,-0.0078,0.0055,0.0019,0.0116,-0.0004,0.0029,-0.0014,-0.0089,-0.0114,-0.0127,-0.0253,-0.0255,-0.0188,-0.0102,-0.0227,-0.0219,-0.0195,-0.0194,-0.0194,0,-0.1068,-0.0955,-0.0937,-0.0831,-0.0742,-0.0668,-0.0544,-0.0396,-0.0265,-0.0255,-0.0105,-0.0091,-0.0117,-0.0093,-0.0131,-0.0155,-0.0134,-0.0237,-0.0242,-0.0206,-0.018,-0.0123,-0.0112,-0.0215,-0.0214,-0.0213,-0.02,0,-0.1051,-0.0997,-0.0977,-0.0892,-0.0833,-0.0765,-0.0696,-0.0623,-0.0579,-0.0516,-0.0417,-0.0435,-0.0357,-0.0375,-0.0377,-0.0305,-0.0336,-0.0413,-0.0422,-0.0375,-0.0381,-0.0375,-0.0478,-0.048,-0.0482,-0.0483,0,0,-0.1104,-0.1064,-0.1084,-0.1028,-0.0964,-0.0961,-0.0868,-0.082,-0.0741,-0.0668,-0.0708,-0.0603,-0.0596,-0.0478,-0.0451,-0.0481,-0.0501,-0.0416,-0.0412,-0.0403,-0.0396,-0.0397,-0.039,-0.0487,-0.0487,-0.0488,-0.0489,0,-0.1109,-0.1126,-0.1102,-0.1062,-0.1016,-0.0976,-0.0964,-0.0905,-0.0849,-0.0763,-0.0753,-0.072,-0.0644,-0.0596,-0.0568,-0.0511,-0.0527,-0.0519,-0.0391,-0.0428,-0.0417,-0.0408,-0.0406,-0.0398,-0.0493,-0.0493,-0.0493,0,-0.1123,-0.112,-0.112,-0.1095,-0.1062,-0.0995,-0.1013,-0.0971,-0.0887,-0.09,-0.0776,-0.078,-0.075,-0.067,-0.064,-0.0647,-0.0552,-0.0575,-0.0568,-0.0521,-0.056,-0.0548,-0.0537,-0.0668,-0.0668,-0.0668,0,0,-0.1119,-0.1121,-0.1096,-0.1095,-0.1078,-0.1035,-0.101,-0.0975,-0.0931,-0.0901,-0.0847,-0.0806,-0.0764,-0.072,-0.0693,-0.0626,-0.0645,-0.059,-0.0582,-0.0575,-0.0525,-0.0561,-0.055,-0.0668,-0.0668,-0.0668,0,0,-0.1112,-0.1105,-0.1095,-0.11,-0.1059,-0.1016,-0.0989,-0.0967,-0.0905,-0.0893,-0.085,-0.0833,-0.0766,-0.0763,-0.0766,-0.0668,-0.0713,-0.0711,-0.0625,-0.0615,-0.0608,-0.0547,-0.0742,0,0,0,0,0,-0.1106,-0.1114,-0.1106,-0.1105,-0.1072,-0.1031,-0.1019,-0.0968,-0.0959,-0.0927,-0.088,-0.0861,-0.0754,-0.0755,-0.0744,-0.068,-0.0667,-0.0667,-0.0667,-0.0546,-0.0536,-0.0527,0,0,0,0,0,0,-0.1106,-0.1107,-0.1105,-0.1074,-0.1065,-0.1032,-0.1011,-0.0996,-0.0959,-0.095,-0.0872,-0.086,-0.0823,-0.0759,-0.0749,-0.0688,-0.0745,-0.0667,-0.0667,-0.0667,-0.0543,-0.0534,-0.0527,0,0,0,0,0,-0.1105,-0.1106,-0.1074,-0.1071,-0.1063,-0.1003,-0.101,-0.0997,-0.0954,-0.0903,-0.0887,-0.0916,-0.0825,-0.0812,-0.0753,-0.0693,-0.0752,-0.0748,-0.0667,-0.0667,-0.0667,-0.0539,0,0,0,0,0,0,-0.1105,-0.1074,-0.107,-0.1064,-0.1065,-0.1,-0.0991,-0.0998,-0.0906,-0.0892,-0.0946,-0.0941,-0.0826,-0.0816,-0.0806,-0.0694,-0.0757,-0.0754,-0.0751,-0.0667,-0.0667,-0.0667,0,0,0,0,0,0,-0.1073,-0.107,-0.1067,-0.1062,-0.1055,-0.0998,-0.0991,-0.0958,-0.0905,-0.0952,-0.0946,-0.0945,-0.0844,-0.0819,-0.0811,-0.0761,-0.0762,-0.0758,-0.0756,-0.0754,-0.0667,-0.0667,0,0,0,0,0,0,-0.107,-0.1067,-0.1063,-0.1057,-0.1051,-0.0978,-0.0965,-0.0931,-0.0911,-0.0956,-0.0908,-0.0906,-0.0848,-0.0839,-0.0815,-0.0768,-0.0762,-0.0761,-0.0759,-0.0757,-0.0756,0,0,0,0,0,0,0,-0.1067,-0.1113,-0.1112,-0.1053,-0.1048,-0.1014,-0.1012,-0.101,-0.091,-0.0909,-0.0908,-0.0907,-0.0782,-0.0778,-0.0774,-0.0774,0,0,-0.0762,-0.076,0,0,0,0,0,0,0,0,-0.1112,-0.1113,-0.1112,-0.1111,-0.1111,-0.1014,-0.1012,-0.101,-0.091,-0.0909,-0.0908,-0.0907,-0.0781,-0.0778,-0.0774,0,0,0,0,0,0,0,0,0,0,0,0,0,0,0,-0.1112,-0.1111,0,-0.1014,-0.1012,-0.1011,-0.091,-0.0909,-0.0908,-0.0908,-0.078,-0.0777,-0.0775,0,0,0,0,0,0,0,0,0,0,0,0,0,0,0,0,0,0,0,0,0,0,0,0,0,0,0,0,0,0,0,0,0,0,0,0,0,0,0,0,0,0,0,0,0,0,0,0,0,0,0,0,0,0,0,0,0,0,0,0,0,0,0,0,0,0,0,0,0]}]],[[{"header":{"parameterUnit":"kt","parameterCategory":2,"dx":1,"dy":1,"la1":30.253999710083008,"la2":30.299108505249023,"lo1":-89.0895004272461,"lo2":-89.04439544677734,"nx":28,"ny":28,"refTime":"2022-09-23T21:00:00:Z","depth":"4","parameterNumber":2,"parameterNumberName":"U-component_of_CURRENTS"},"data":[-0.018,-0.0004,0.0066,0.0382,0.0606,0.0906,0.0985,0.1043,0.0914,0.1027,0.0793,0.1075,0.0686,0.0838,0.0424,0.0397,0.0759,0.0215,0.0215,0.0866,0.0902,0.0934,0.0938,0,0,0,0,0,-0.0152,-0.0095,0.0167,0.0529,0.0862,0.1079,0.1268,0.1369,0.1472,0.1266,0.1404,0.1031,0.0771,0.0574,0.0418,0.0426,0.0575,0.0253,0.0811,0.0888,0.0928,0.0919,0,0,0,0,0,0,-0.0159,-0.0055,0.0222,0.0612,0.0983,0.1141,0.1334,0.1392,0.1525,0.1646,0.14,0.1231,0.1246,0.0959,0.0617,0.0519,0.0641,0.0839,0.0878,0.0916,0.0893,0.0816,0.0413,0,0,0,0,0,-0.0144,0.0029,0.023,0.0658,0.1012,0.1314,0.1646,0.1658,0.1893,0.2164,0.1874,0.1774,0.1414,0.1212,0.0986,0.0755,0.1238,0.0978,0.1007,0.1291,0.1256,0.1155,0.1176,0.1079,0.1084,0.1087,0.1089,0,-0.0109,0.0015,0.0468,0.0684,0.093,0.1371,0.1621,0.1991,0.2093,0.2221,0.2164,0.2089,0.204,0.1486,0.1401,0.1145,0.1064,0.1077,0.1379,0.1322,0.1207,0.1219,0.1228,0.1121,0.1119,0.1116,0.1114,0,-0.0092,0.008,0.0341,0.075,0.0936,0.1229,0.1709,0.1914,0.2228,0.2394,0.2507,0.2566,0.2309,0.2242,0.1992,0.1919,0.162,0.1409,0.1701,0.1583,0.1288,0.1284,0.1174,0.1162,0.1152,0.1144,0.1137,0,-0.0039,0.012,0.0445,0.0566,0.0926,0.1158,0.1564,0.1813,0.2127,0.2271,0.2557,0.2522,0.2676,0.2493,0.2321,0.1953,0.2089,0.1768,0.1638,0.199,0.1983,0.1886,0.1866,0.2068,0.2069,0.207,0.2071,0,-0.0073,0.0172,0.0381,0.048,0.0801,0.1052,0.1291,0.1652,0.1865,0.2244,0.2379,0.2564,0.263,0.2556,0.229,0.2372,0.207,0.2128,0.1705,0.1677,0.1886,0.1864,0.2073,0.2073,0.2073,0.2074,0.2074,0,-0.0061,0.0045,0.0274,0.0556,0.0634,0.0858,0.1264,0.1488,0.1831,0.2023,0.226,0.2342,0.2471,0.2391,0.233,0.2343,0.2197,0.2066,0.2054,0.1692,0.1467,0.1593,0.1804,0.1803,0.1803,0.1802,0.1802,0,-0.0096,0.0048,0.0124,0.0373,0.049,0.0699,0.0922,0.1209,0.1461,0.1733,0.1865,0.2075,0.2052,0.2143,0.2163,0.2029,0.2028,0.204,0.177,0.1762,0.1465,0.159,0.1954,0.1792,0.1793,0.1794,0.1795,0,-0.0157,-0.0029,0.0001,0.0123,0.0334,0.0441,0.0711,0.0977,0.1202,0.1468,0.172,0.1861,0.1936,0.1952,0.1916,0.1922,0.1992,0.1813,0.1806,0.1734,0.1919,0.161,0.1585,0.1937,0.194,0.1943,0.1788,0,-0.0134,-0.0057,-0.0031,0.0098,0.0203,0.0339,0.052,0.0737,0.0964,0.1123,0.1396,0.1435,0.1576,0.1587,0.1549,0.1688,0.1593,0.1512,0.1403,0.1572,0.1472,0.1479,0.1331,0.1326,0.1322,0.1319,0,0,-0.0162,-0.0132,-0.0122,-0.0053,0.0037,0.0163,0.0297,0.0448,0.069,0.084,0.0893,0.113,0.1141,0.1263,0.136,0.1324,0.127,0.135,0.1488,0.1508,0.1525,0.1441,0.1452,0.1312,0.131,0.1309,0.1307,0,-0.0196,-0.0172,-0.0146,-0.008,0.0031,0.0104,0.0174,0.0345,0.0519,0.0743,0.0777,0.0905,0.1024,0.1057,0.1068,0.1256,0.1148,0.1274,0.1474,0.1453,0.1478,0.15,0.1423,0.1436,0.1298,0.1298,0.1299,0,-0.0203,-0.0198,-0.0189,-0.0141,-0.0084,0.0012,0.0047,0.0192,0.0361,0.0343,0.0638,0.0669,0.0666,0.0812,0.0884,0.0827,0.1012,0.0979,0.0999,0.1036,0.1007,0.1037,0.1064,0.0716,0.0715,0.0714,0,0,-0.0208,-0.0199,-0.0165,-0.0146,-0.0117,-0.0014,0.0043,0.0167,0.0274,0.0366,0.0472,0.0568,0.0619,0.0688,0.0728,0.0831,0.0759,0.0915,0.0942,0.0965,0.1015,0.0993,0.1022,0.0709,0.0709,0.0709,0,0,-0.0205,-0.0197,-0.0165,-0.0152,-0.0088,-0.0029,0.0032,0.0136,0.0301,0.0391,0.0411,0.0434,0.0605,0.0574,0.0515,0.0727,0.0604,0.0616,0.0778,0.0811,0.0838,0.0894,0.0457,0,0,0,0,0,-0.0228,-0.0225,-0.0198,-0.0195,-0.0129,-0.0075,-0.0053,0.0073,0.0179,0.0262,0.0386,0.0362,0.0565,0.0512,0.0515,0.064,0.0648,0.0659,0.0669,0.09,0.0935,0.0965,0,0,0,0,0,0,-0.0227,-0.0226,-0.0199,-0.0162,-0.0147,-0.0075,-0.0008,0.0029,0.0176,0.0206,0.0341,0.0358,0.0357,0.0507,0.0511,0.0632,0.0456,0.0652,0.0662,0.067,0.0912,0.0941,0.0966,0,0,0,0,0,-0.0227,-0.0225,-0.015,-0.0157,-0.0144,-0.0007,-0.0001,0.003,0.0209,0.0199,0.0231,0.0316,0.0351,0.0366,0.0509,0.0633,0.0452,0.0454,0.0658,0.0666,0.0672,0.0926,0,0,0,0,0,0,-0.0226,-0.0162,-0.0143,-0.0135,-0.0114,0.0001,0.0025,0.0031,0.0201,0.0227,0.0156,0.0174,0.0346,0.0358,0.0368,0.0638,0.045,0.0452,0.0453,0.0664,0.067,0.0675,0,0,0,0,0,0,-0.0163,-0.0155,-0.0138,-0.009,-0.0073,0.0007,0.0028,0.0024,0.02,0.0154,0.0171,0.0161,0.0312,0.0352,0.0361,0.0352,0.0448,0.045,0.0451,0.0451,0.0669,0.0673,0,0,0,0,0,0,-0.0157,-0.0149,-0.0089,-0.0077,-0.0061,0.0064,0.0009,0.0075,0.0237,0.0146,0.0252,0.026,0.0301,0.0314,0.0355,0.0341,0.0349,0.0448,0.0449,0.045,0.045,0,0,0,0,0,0,0,-0.0152,-0.0237,-0.0219,-0.0066,-0.0052,-0.0058,-0.0053,-0.0048,0.0239,0.0245,0.0251,0.0257,0.0439,0.044,0.0442,0.0332,0,0,0.0448,0.0449,0,0,0,0,0,0,0,0,-0.0237,-0.0237,-0.0219,-0.0218,-0.0218,-0.0057,-0.0053,-0.0049,0.024,0.0245,0.025,0.0254,0.0439,0.0441,0.0442,0,0,0,0,0,0,0,0,0,0,0,0,0,0,0,-0.0219,-0.0218,0,-0.0056,-0.0053,-0.005,0.024,0.0245,0.0249,0.0252,0.044,0.0441,0.0442,0,0,0,0,0,0,0,0,0,0,0,0,0,0,0,0,0,0,0,0,0,0,0,0,0,0,0,0,0,0,0,0,0,0,0,0,0,0,0,0,0,0,0,0,0,0,0,0,0,0,0,0,0,0,0,0,0,0,0,0,0,0,0,0,0,0,0,0,0]}],[{"header":{"parameterUnit":"kt","parameterCategory":2,"dx":1,"dy":1,"la1":30.253999710083008,"la2":30.299108505249023,"lo1":-89.0895004272461,"lo2":-89.04439544677734,"nx":28,"ny":28,"refTime":"2022-09-23T21:00:00:Z","depth":"4","parameterNumber":3,"parameterNumberName":"V-component_of_CURRENTS"},"data":[0.0859,0.0949,0.0988,0.0982,0.1028,0.1086,0.1018,0.0935,0.0746,0.0655,0.0423,0.051,0.0145,0.0185,-0.0167,-0.0192,-0.0142,-0.0389,-0.0388,-0.0324,-0.0322,-0.0321,-0.0274,0,0,0,0,0,0.0922,0.0946,0.1038,0.1094,0.1212,0.1271,0.1181,0.1137,0.1035,0.0771,0.073,0.0409,0.0101,-0.0143,-0.0205,-0.0236,-0.0294,-0.0301,-0.0239,-0.0323,-0.0321,-0.0276,0,0,0,0,0,0,0.1005,0.1027,0.1191,0.1256,0.1347,0.1274,0.1252,0.1104,0.1035,0.0846,0.0641,0.0326,0.0183,-0.0062,-0.0239,-0.0292,-0.0309,-0.0267,-0.0268,-0.0267,-0.0223,-0.0128,-0.0251,0,0,0,0,0,0.1038,0.1181,0.1233,0.1366,0.1404,0.1402,0.1364,0.1286,0.1168,0.1225,0.0807,0.0581,0.028,-0.0037,-0.0103,-0.0292,-0.0245,-0.0294,-0.0293,-0.0274,-0.0206,-0.0193,-0.0178,-0.0314,-0.0314,-0.0314,-0.0314,0,0.1118,0.1187,0.1351,0.1383,0.1414,0.1414,0.1398,0.1355,0.1289,0.1071,0.0966,0.0721,0.0498,0.0101,-0.0075,-0.0269,-0.0292,-0.0288,-0.0268,-0.0201,-0.0192,-0.0177,-0.0163,-0.0312,-0.0312,-0.0312,-0.0312,0,0.1177,0.1235,0.1315,0.1367,0.1377,0.1365,0.1362,0.1311,0.1246,0.1124,0.1078,0.0783,0.049,0.0346,0.0054,-0.0014,-0.0206,-0.025,-0.0147,-0.0141,-0.0168,-0.0154,-0.031,-0.031,-0.0311,-0.0311,-0.0311,0,0.1209,0.1256,0.1331,0.1366,0.1353,0.1344,0.1303,0.1222,0.1133,0.1034,0.0894,0.0706,0.0506,0.0327,0.0158,-0.0046,-0.0079,-0.0141,-0.0148,-0.0083,-0.007,-0.0095,-0.0082,-0.0207,-0.0207,-0.0206,-0.0206,0,0.124,0.1297,0.132,0.1339,0.1348,0.1329,0.1293,0.1179,0.1128,0.0954,0.0901,0.0645,0.0539,0.0354,0.0159,0.0168,-0.0073,-0.0056,-0.0108,-0.0104,-0.0087,-0.0074,-0.0205,-0.0205,-0.0205,-0.0204,-0.0204,0,0.1252,0.1275,0.1318,0.1331,0.1338,0.1346,0.1253,0.1199,0.1044,0.0956,0.0785,0.0674,0.0477,0.0445,0.0192,0.0232,0.0144,0.0076,0.0071,0.0074,0.0116,0.0166,0.0068,0.007,0.0072,0.0074,0.0076,0,0.1241,0.128,0.1288,0.1338,0.1364,0.1349,0.1282,0.1219,0.1122,0.0996,0.0831,0.069,0.0598,0.0512,0.0389,0.0272,0.019,0.0261,0.0132,0.013,0.0161,0.0066,0.0178,0.0104,0.01,0.0098,0.0096,0,0.1223,0.1282,0.1305,0.1334,0.1357,0.1361,0.1309,0.1237,0.1183,0.1054,0.0922,0.0706,0.0627,0.0536,0.0441,0.0348,0.0239,0.0317,0.0314,0.0305,0.0083,0.0102,0.0087,0.0196,0.0192,0.0189,0.0115,0,0.1198,0.1256,0.1279,0.1318,0.1331,0.1361,0.133,0.1296,0.1236,0.1174,0.0989,0.086,0.0687,0.0621,0.0559,0.0401,0.0407,0.0398,0.04,0.0339,0.032,0.0305,0.0492,0.0493,0.0493,0.0493,0,0,0.1188,0.1204,0.1244,0.1271,0.1284,0.1316,0.1333,0.1319,0.1266,0.1201,0.1174,0.0907,0.081,0.0634,0.0587,0.0555,0.0517,0.0499,0.0379,0.0366,0.0355,0.0332,0.0317,0.0494,0.0494,0.0494,0.0494,0,0.1143,0.1183,0.123,0.1252,0.1303,0.1303,0.1314,0.1317,0.1294,0.1211,0.1146,0.1024,0.084,0.0737,0.0658,0.0573,0.0505,0.0513,0.0465,0.0384,0.0372,0.036,0.0336,0.0322,0.0495,0.0495,0.0495,0,0.1117,0.1128,0.1167,0.119,0.1233,0.1252,0.1258,0.1309,0.1287,0.1221,0.1144,0.105,0.0923,0.0789,0.0722,0.0722,0.0516,0.0562,0.056,0.0546,0.0463,0.0449,0.0436,0.06,0.0601,0.0601,0,0,0.1094,0.1138,0.1151,0.1182,0.1204,0.1241,0.127,0.1289,0.1262,0.1265,0.1164,0.1065,0.095,0.0876,0.0781,0.0663,0.0635,0.0577,0.0572,0.0568,0.0552,0.0469,0.0455,0.0603,0.0603,0.0603,0,0,0.1072,0.1106,0.1134,0.1158,0.1186,0.1206,0.1255,0.1264,0.125,0.126,0.1149,0.1117,0.0989,0.093,0.0971,0.0737,0.0757,0.0747,0.0763,0.0756,0.0751,0.0756,0.0892,0,0,0,0,0,0.1082,0.1099,0.1125,0.1133,0.1184,0.12,0.1213,0.1248,0.1265,0.1288,0.1224,0.1156,0.0926,0.096,0.0929,0.0832,0.0628,0.0623,0.0619,0.0614,0.0607,0.0601,0,0,0,0,0,0,0.1084,0.1089,0.1125,0.1139,0.1152,0.12,0.1204,0.1216,0.1262,0.1265,0.1179,0.1153,0.1078,0.0969,0.0942,0.085,0.09,0.0626,0.0622,0.0619,0.0611,0.0606,0.0601,0,0,0,0,0,0.1086,0.109,0.1154,0.1141,0.1153,0.1202,0.1203,0.1213,0.126,0.1154,0.1137,0.1284,0.1081,0.1051,0.0952,0.0864,0.0918,0.0908,0.0624,0.0621,0.0618,0.0609,0,0,0,0,0,0,0.1088,0.1118,0.1159,0.1166,0.1127,0.1202,0.121,0.121,0.1143,0.1134,0.1246,0.1247,0.1083,0.1059,0.1036,0.0872,0.0932,0.0922,0.0916,0.0621,0.0619,0.0617,0,0,0,0,0,0,0.1116,0.1123,0.1163,0.1142,0.1147,0.1201,0.1208,0.1111,0.1133,0.1237,0.1239,0.1245,0.1032,0.1065,0.1047,0.0903,0.0943,0.0934,0.0927,0.0923,0.0619,0.0618,0,0,0,0,0,0,0.1121,0.1127,0.1141,0.1145,0.115,0.1232,0.1107,0.111,0.1276,0.1233,0.1273,0.1272,0.1032,0.1019,0.1055,0.0919,0.0907,0.0943,0.0936,0.0932,0.0929,0,0,0,0,0,0,0,0.1124,0.1062,0.1113,0.1147,0.1151,0.1226,0.1229,0.1231,0.1276,0.1275,0.1273,0.1272,0.0995,0.0985,0.0975,0.0933,0,0,0.0943,0.0939,0,0,0,0,0,0,0,0,0.1062,0.1062,0.1113,0.1114,0.1115,0.1227,0.1229,0.1231,0.1275,0.1275,0.1274,0.1273,0.0992,0.0984,0.0976,0,0,0,0,0,0,0,0,0,0,0,0,0,0,0,0.1113,0.1114,0,0.1227,0.1229,0.123,0.1275,0.1275,0.1274,0.1273,0.099,0.0984,0.0977,0,0,0,0,0,0,0,0,0,0,0,0,0,0,0,0,0,0,0,0,0,0,0,0,0,0,0,0,0,0,0,0,0,0,0,0,0,0,0,0,0,0,0,0,0,0,0,0,0,0,0,0,0,0,0,0,0,0,0,0,0,0,0,0,0,0,0,0,0]}]]]